This is the latest recevied weather packets stored in our database for station/object W0VI. If no packets are shown the sender has not sent any weather packets the latest 10 day(s).
| Time | Temp. | Humidity | Pressure | Rain* | Wind** | Luminosity | Snow |
|---|---|---|---|---|---|---|---|
| 1777834640 | 20° C | 29% | 1006.6 hPa | 0 mm | - | 654 W/m² | - |
| 1777834335 | 20.56° C | 29% | 1006.7 hPa | 0 mm | - | 668 W/m² | - |
| 1777834035 | 20.56° C | 29% | 1007 hPa | 0 mm | - | 598 W/m² | - |
| 1777833731 | 20.56° C | 31% | 1006.7 hPa | 0 mm | - | 606 W/m² | - |
| 1777833428 | 20° C | 30% | 1006.6 hPa | 0 mm | - | 636 W/m² | - |
| 1777833125 | 20° C | 28% | 1006.9 hPa | 0 mm | - | 673 W/m² | - |
| 1777832823 | 19.44° C | 28% | 1006.9 hPa | 0 mm | - | 663 W/m² | - |
| 1777832522 | 20° C | 28% | 1006.9 hPa | 0 mm | - | 662 W/m² | - |
| 1777832218 | 20° C | 27% | 1006.9 hPa | 0 mm | - | 629 W/m² | - |
| 1777831915 | 20.56° C | 28% | 1007 hPa | 0 mm | - | 643 W/m² | - |
| 1777831611 | 20° C | 27% | 1006.8 hPa | 0 mm | - | 674 W/m² | - |
| 1777831310 | 20° C | 29% | 1006.8 hPa | 0 mm | - | 665 W/m² | - |
| 1777831007 | 20° C | 29% | 1007.1 hPa | 0 mm | - | 659 W/m² | - |
| 1777830704 | 19.44° C | 29% | 1007 hPa | 0 mm | - | 671 W/m² | - |
| 1777830400 | 20° C | 30% | 1007.2 hPa | 0 mm | - | 673 W/m² | - |
| 1777830097 | 19.44° C | 33% | 1007.2 hPa | 0 mm | - | 670 W/m² | - |
| 1777829792 | 19.44° C | 34% | 1006.9 hPa | 0 mm | - | 689 W/m² | - |
| 1777829489 | 19.44° C | 34% | 1007 hPa | 0 mm | - | 681 W/m² | - |
| 1777829186 | 19.44° C | 38% | 1007.1 hPa | 0 mm | - | 652 W/m² | - |
| 1777828884 | 19.44° C | 36% | 1007.3 hPa | 0 mm | - | 654 W/m² | - |
| 1777828580 | 18.89° C | 38% | 1007.1 hPa | 0 mm | - | 668 W/m² | - |
| 1777828277 | 18.89° C | 34% | 1007.2 hPa | 0 mm | - | 664 W/m² | - |
| 1777827974 | 18.89° C | 36% | 1007.1 hPa | 0 mm | - | 668 W/m² | - |
| 1777827670 | 19.44° C | 39% | 1007.2 hPa | 0 mm | - | 673 W/m² | - |
| 1777827368 | 18.89° C | 40% | 1007.3 hPa | 0 mm | - | 670 W/m² | - |
* Rain latest hour (hover to see other rain measurements)
** Current wind speed in m/s (hover to see current wind gust speed)